This demonstration page uses our WeatherBlox Daily Observations layout. Learn more.

Left ArrowRight Arrow

34.74481, -87.66753

Hourly Observations for February 20, 2018

Temp ( °F °C ) Dew Point ( °F °C ) Humidity (%) Winds ( mph kmh ) Pressure ( in mb ) Visibility ( mi km ) Precip ( " mm )
12:53 am 00:53 Clear 68 20 58 14.4 70 70 S 15 24 30.18 1022 10 16 0.00 0.00
1:53 am 01:53 Clear 68 20 58 14.4 70 70 S 12 19 30.19 1022 10 16 0.00 0.00
2:53 am 02:53 Clear 66 18.9 57 13.9 73 73 S 7 11 30.19 1022 10 16 0.00 0.00
3:53 am 03:53 Clear 63 17.2 55 12.8 76 76 SSE 8 13 30.18 1022 10 16 0.00 0.00
4:53 am 04:53 Clear 62 16.7 55 12.8 78 78 SSE 8 13 30.19 1022 10 16 0.00 0.00
5:53 am 05:53 Clear 59 15 54 12.2 83 83 SSE 7 11 30.21 1023 10 16 0.00 0.00
6:53 am 06:53 Sunny 61 16.1 56 13.3 84 84 SSE 9 15 30.22 1024 10 16 0.00 0.00
7:53 am 07:53 Mostly Sunny 65 18.3 58 14.4 78 78 SSE 8 13 30.25 1024 10 16 0.00 0.00
8:15 am 08:15 Mostly Cloudy 65 18.3 58 14.4 78 78 S 15 24 30.24 1024 10 16 0.00 0.00
8:53 am 08:53 Cloudy 66 18.9 59 15 78 78 S 14 22 30.26 1025 10 16 0.00 0.00
9:13 am 09:13 Cloudy 66 18.9 59 15 78 78 S 13 20 30.24 1024 10 16 0.00 0.00
9:53 am 09:53 Cloudy 67 19.4 59 15 76 76 SSW 12 19 30.26 1025 10 16 0.00 0.00
10:01 am 10:01 Cloudy 68 20 60 15.6 76 76 SSW 13 20 30.24 1024 10 16 0.00 0.00
10:53 am 10:53 Mostly Cloudy 74 23.3 60 15.6 62 62 S 15 24 30.25 1025 10 16 0.00 0.00
11:53 am 11:53 Cloudy 75 23.9 60 15.6 60 60 S 12 19 30.22 1023 10 16 0.00 0.00
12:53 pm 12:53 Cloudy 77 25 60 15.6 56 56 S 16 26 30.18 1022 10 16 0.00 0.00
1:53 pm 13:53 Mostly Cloudy 79 26.1 59 15 50 50 SSW 20 31 30.16 1021 10 16 0.00 0.00
2:53 pm 14:53 Mostly Cloudy 79 26.1 58 14.4 49 49 S 14 22 30.15 1021 10 16 0.00 0.00
3:53 pm 15:53 Cloudy 78 25.6 59 15 52 52 S 10 17 30.16 1021 10 16 0.00 0.00
4:53 pm 16:53 Cloudy 77 25 59 15 54 54 S 8 13 30.16 1022 10 16 0.00 0.00
5:53 pm 17:53 Cloudy 74 23.3 59 15 60 60 SSE 8 13 30.17 1022 10 16 0.00 0.00
6:53 pm 18:53 Cloudy 73 22.8 59 15 62 62 SSE 9 15 30.16 1022 10 16 0.00 0.00
7:53 pm 19:53 Cloudy 72 22.2 59 15 64 64 SE 12 19 30.17 1022 10 16 0.00 0.00
8:53 pm 20:53 Cloudy 73 22.8 60 15.6 64 64 SSE 12 19 30.18 1022 10 16 0.00 0.00
9:53 pm 21:53 Cloudy 71 21.7 60 15.6 68 68 SSE 12 19 30.20 1023 10 16 0.00 0.00
10:53 pm 22:53 Mostly Clear 71 21.7 60 15.6 68 68 S 10 17 30.21 1023 10 16 0.00 0.00
11:53 pm 23:53 Mostly Cloudy 71 21.7 61 16.1 71 71 S 12 19 30.21 1023 10 16 0.00 0.00

Powered by AerisWeather